Time,TemperatureF,DewpointF,PressureIn,WindDirection,WindDirectionDegrees,WindSpeedMPH,WindSpeedGustMPH,Humidity,HourlyPrecipIn,Conditions,Clouds,dailyrainin,SolarRadiationWatts/m^2,SoftwareType,DateUTC
2013-07-01 00:03:00,74.9,71.1,29.89,North,360,0.0,0.0,88,0.00,,,0.00,0,Wunderground v.1.15,2013-07-01 04:03:00,
2013-07-01 00:05:00,74.9,71.1,29.89,North,360,0.0,0.0,88,0.00,,,0.00,0,Wunderground v.1.15,2013-07-01 04:05:00,
2013-07-01 00:10:00,74.9,71.1,29.89,North,360,0.0,0.0,88,0.00,,,0.00,0,Wunderground v.1.15,2013-07-01 04:10:00,
2013-07-01 00:12:00,74.9,71.1,29.89,North,360,0.0,0.0,88,0.00,,,0.00,0,Wunderground v.1.15,2013-07-01 04:12:00,
2013-07-01 00:17:00,74.9,71.1,29.89,North,360,0.0,0.0,88,0.00,,,0.00,0,Wunderground v.1.15,2013-07-01 04:17:00,
2013-07-01 00:23:00,74.7,70.9,29.89,North,360,0.0,0.0,88,0.00,,,0.00,0,Wunderground v.1.15,2013-07-01 04:23:00,
2013-07-01 00:29:00,74.7,70.9,29.89,North,360,0.0,0.0,88,0.00,,,0.00,0,Wunderground v.1.15,2013-07-01 04:29:00,
2013-07-01 00:35:00,74.7,70.9,29.89,North,360,0.0,0.0,88,0.00,,,0.00,0,Wunderground v.1.15,2013-07-01 04:35:00,
2013-07-01 00:42:00,74.7,70.9,29.89,North,360,0.0,0.0,88,0.00,,,0.00,0,Wunderground v.1.15,2013-07-01 04:42:00,
2013-07-01 00:49:00,74.6,71.1,29.90,North,360,0.0,0.0,89,0.00,,,0.00,0,Wunderground v.1.15,2013-07-01 04:49:00,
2013-07-01 00:55:00,74.6,71.1,29.90,North,360,0.0,0.0,89,0.00,,,0.00,0,Wunderground v.1.15,2013-07-01 04:55:00,
2013-07-01 01:02:00,74.6,71.1,29.90,North,360,0.0,0.0,89,0.00,,,0.00,0,Wunderground v.1.15,2013-07-01 05:02:00,
2013-07-01 01:09:00,74.6,71.1,29.90,North,360,0.0,0.0,89,0.00,,,0.00,0,Wunderground v.1.15,2013-07-01 05:09:00,
2013-07-01 01:15:00,74.6,71.1,29.90,North,360,0.0,0.0,89,0.00,,,0.00,0,Wunderground v.1.15,2013-07-01 05:15:00,
2013-07-01 01:22:00,74.6,71.1,29.90,North,360,0.0,0.0,89,0.00,,,0.00,0,Wunderground v.1.15,2013-07-01 05:22:00,
2013-07-01 01:29:00,74.6,71.1,29.90,North,360,0.0,0.0,89,0.00,,,0.00,0,Wunderground v.1.15,2013-07-01 05:29:00,
2013-07-01 01:35:00,74.6,71.1,29.90,North,360,0.0,0.0,89,0.00,,,0.00,0,Wunderground v.1.15,2013-07-01 05:35:00,
2013-07-01 01:41:00,74.7,71.2,29.90,North,360,0.0,0.0,89,0.00,,,0.00,0,Wunderground v.1.15,2013-07-01 05:41:00,
2013-07-01 01:49:00,74.7,71.2,29.89,North,360,0.0,0.0,89,0.00,,,0.00,0,Wunderground v.1.15,2013-07-01 05:49:00,
2013-07-01 01:55:00,74.7,71.2,29.89,North,360,0.0,0.0,89,0.00,,,0.00,0,Wunderground v.1.15,2013-07-01 05:55:00,
2013-07-01 02:01:00,74.7,71.2,29.89,North,360,0.0,0.0,89,0.00,,,0.00,0,Wunderground v.1.15,2013-07-01 06:01:00,
2013-07-01 02:06:00,74.7,71.2,29.89,North,360,0.0,0.0,89,0.00,,,0.00,0,Wunderground v.1.15,2013-07-01 06:06:00,
2013-07-01 02:13:00,74.7,71.2,29.89,North,360,0.0,2.0,89,0.00,,,0.00,0,Wunderground v.1.15,2013-07-01 06:13:00,
2013-07-01 02:18:00,74.7,71.2,29.89,North,360,0.0,0.0,89,0.00,,,0.00,0,Wunderground v.1.15,2013-07-01 06:18:00,
2013-07-01 02:24:00,74.7,71.2,29.89,North,360,0.0,0.0,89,0.00,,,0.00,0,Wunderground v.1.15,2013-07-01 06:24:00,
2013-07-01 02:31:00,74.7,71.2,29.89,North,360,0.0,0.0,89,0.00,,,0.00,0,Wunderground v.1.15,2013-07-01 06:31:00,
2013-07-01 02:38:00,74.7,71.2,29.89,North,360,0.0,0.0,89,0.00,,,0.00,0,Wunderground v.1.15,2013-07-01 06:38:00,
2013-07-01 02:44:00,74.7,71.2,29.89,North,360,0.0,1.0,89,0.00,,,0.00,0,Wunderground v.1.15,2013-07-01 06:44:00,
2013-07-01 02:51:00,74.9,71.4,29.89,North,360,0.0,0.0,89,0.00,,,0.00,0,Wunderground v.1.15,2013-07-01 06:51:00,
2013-07-01 02:56:00,74.9,71.4,29.89,North,360,0.0,0.0,89,0.00,,,0.00,0,Wunderground v.1.15,2013-07-01 06:56:00,
2013-07-01 03:02:00,74.9,71.4,29.89,North,360,0.0,0.0,89,0.00,,,0.00,0,Wunderground v.1.15,2013-07-01 07:02:00,
2013-07-01 03:08:00,74.9,71.4,29.89,North,360,0.0,1.0,89,0.00,,,0.00,0,Wunderground v.1.15,2013-07-01 07:08:00,
2013-07-01 03:14:00,74.9,71.4,29.89,North,360,0.0,1.0,89,0.00,,,0.00,0,Wunderground v.1.15,2013-07-01 07:14:00,
2013-07-01 03:21:00,75.1,71.6,29.88,North,360,0.0,3.0,89,0.00,,,0.00,0,Wunderground v.1.15,2013-07-01 07:21:00,
2013-07-01 03:26:00,75.1,71.6,29.88,North,360,1.0,5.0,89,0.00,,,0.00,0,Wunderground v.1.15,2013-07-01 07:26:00,
2013-07-01 03:32:00,75.1,71.3,29.88,North,360,1.0,1.0,88,0.00,,,0.00,0,Wunderground v.1.15,2013-07-01 07:32:00,
2013-07-01 03:38:00,75.1,71.3,29.88,North,360,0.0,0.0,88,0.00,,,0.00,0,Wunderground v.1.15,2013-07-01 07:38:00,
2013-07-01 03:44:00,75.1,71.3,29.88,North,360,0.0,1.0,88,0.00,,,0.00,0,Wunderground v.1.15,2013-07-01 07:44:00,
2013-07-01 03:52:00,75.1,71.3,29.89,North,360,0.0,3.0,88,0.00,,,0.00,0,Wunderground v.1.15,2013-07-01 07:52:00,
2013-07-01 03:58:00,75.1,71.3,29.89,North,360,0.0,0.0,88,0.00,,,0.00,0,Wunderground v.1.15,2013-07-01 07:58:00,
2013-07-01 04:04:00,75.1,71.3,29.89,North,360,0.0,1.0,88,0.00,,,0.00,0,Wunderground v.1.15,2013-07-01 08:04:00,
2013-07-01 04:10:00,75.1,71.3,29.89,North,360,1.0,1.0,88,0.00,,,0.00,0,Wunderground v.1.15,2013-07-01 08:10:00,
2013-07-01 04:16:00,75.1,71.0,29.88,North,360,1.0,1.0,87,0.00,,,0.00,0,Wunderground v.1.15,2013-07-01 08:16:00,
2013-07-01 04:21:00,75.1,71.0,29.88,North,360,1.0,1.0,87,0.00,,,0.00,0,Wunderground v.1.15,2013-07-01 08:21:00,
2013-07-01 04:27:00,74.9,71.1,29.88,North,360,0.0,1.0,88,0.00,,,0.00,0,Wunderground v.1.15,2013-07-01 08:27:00,
2013-07-01 04:33:00,74.9,71.1,29.89,North,360,0.0,1.0,88,0.00,,,0.00,0,Wunderground v.1.15,2013-07-01 08:33:00,
2013-07-01 04:41:00,74.7,70.9,29.89,North,360,0.0,1.0,88,0.00,,,0.00,0,Wunderground v.1.15,2013-07-01 08:41:00,
2013-07-01 04:47:00,74.7,70.9,29.89,North,360,1.0,1.0,88,0.00,,,0.00,0,Wunderground v.1.15,2013-07-01 08:47:00,
2013-07-01 04:53:00,74.6,70.8,29.89,North,360,0.0,1.0,88,0.00,,,0.00,0,Wunderground v.1.15,2013-07-01 08:53:00,
2013-07-01 05:00:00,74.6,71.1,29.89,North,360,0.0,0.0,89,0.00,,,0.00,0,Wunderground v.1.15,2013-07-01 09:00:00,
2013-07-01 05:05:00,74.4,70.9,29.89,North,360,1.0,3.0,89,0.00,,,0.00,0,Wunderground v.1.15,2013-07-01 09:05:00,
2013-07-01 05:11:00,74.4,70.9,29.89,North,360,1.0,4.0,89,0.00,,,0.00,0,Wunderground v.1.15,2013-07-01 09:11:00,
2013-07-01 05:17:00,74.4,70.9,29.90,North,360,1.0,1.0,89,0.00,,,0.00,0,Wunderground v.1.15,2013-07-01 09:17:00,
2013-07-01 05:23:00,74.4,70.9,29.90,North,360,1.0,1.0,89,0.00,,,0.00,0,Wunderground v.1.15,2013-07-01 09:23:00,
2013-07-01 05:30:00,74.4,70.9,29.91,North,360,0.0,0.0,89,0.00,,,0.00,0,Wunderground v.1.15,2013-07-01 09:30:00,
2013-07-01 05:37:00,74.4,70.9,29.91,North,360,0.0,0.0,89,0.00,,,0.00,0,Wunderground v.1.15,2013-07-01 09:37:00,
2013-07-01 05:43:00,74.4,70.9,29.91,North,360,0.0,1.0,89,0.00,,,0.00,0,Wunderground v.1.15,2013-07-01 09:43:00,
2013-07-01 05:50:00,74.4,70.9,29.91,North,360,0.0,1.0,89,0.00,,,0.00,7,Wunderground v.1.15,2013-07-01 09:50:00,
2013-07-01 05:55:00,74.4,70.9,29.91,North,360,1.0,1.0,89,0.00,,,0.00,7,Wunderground v.1.15,2013-07-01 09:55:00,
2013-07-01 06:01:00,74.4,70.9,29.91,North,360,1.0,1.0,89,0.00,,,0.00,7,Wunderground v.1.15,2013-07-01 10:01:00,
2013-07-01 06:07:00,74.4,70.9,29.91,North,360,0.0,4.0,89,0.00,,,0.00,7,Wunderground v.1.15,2013-07-01 10:07:00,
2013-07-01 06:13:00,74.4,70.9,29.91,North,360,1.0,4.0,89,0.00,,,0.00,9,Wunderground v.1.15,2013-07-01 10:13:00,
2013-07-01 06:19:00,74.6,71.1,29.91,North,360,0.0,1.0,89,0.00,,,0.00,12,Wunderground v.1.15,2013-07-01 10:19:00,
2013-07-01 06:27:00,74.6,71.1,29.91,North,360,1.0,3.0,89,0.00,,,0.00,23,Wunderground v.1.15,2013-07-01 10:27:00,
2013-07-01 06:33:00,74.6,71.1,29.91,North,360,1.0,3.0,89,0.00,,,0.00,23,Wunderground v.1.15,2013-07-01 10:33:00,
2013-07-01 06:40:00,74.7,71.2,29.91,North,360,1.0,1.0,89,0.00,,,0.00,23,Wunderground v.1.15,2013-07-01 10:40:00,
2013-07-01 06:46:00,74.7,71.2,29.91,North,360,1.0,1.0,89,0.00,,,0.00,19,Wunderground v.1.15,2013-07-01 10:46:00,
2013-07-01 06:52:00,74.7,71.2,29.91,North,360,1.0,1.0,89,0.00,,,0.00,16,Wunderground v.1.15,2013-07-01 10:52:00,
2013-07-01 06:59:00,74.9,71.4,29.91,North,360,0.0,1.0,89,0.00,,,0.00,18,Wunderground v.1.15,2013-07-01 10:59:00,
2013-07-01 07:06:00,74.9,71.4,29.91,North,360,0.0,0.0,89,0.00,,,0.00,56,Wunderground v.1.15,2013-07-01 11:06:00,
2013-07-01 07:12:00,74.9,71.4,29.91,North,360,1.0,1.0,89,0.00,,,0.00,42,Wunderground v.1.15,2013-07-01 11:12:00,
2013-07-01 07:19:00,75.1,71.6,29.91,North,360,1.0,1.0,89,0.00,,,0.00,37,Wunderground v.1.15,2013-07-01 11:19:00,
2013-07-01 07:26:00,75.3,71.8,29.91,NNE,20,0.0,0.0,89,0.00,,,0.00,56,Wunderground v.1.15,2013-07-01 11:26:00,
2013-07-01 07:32:00,75.3,71.8,29.92,North,360,0.0,0.0,89,0.00,,,0.00,39,Wunderground v.1.15,2013-07-01 11:32:00,
2013-07-01 07:37:00,75.4,71.9,29.92,NNE,20,0.0,3.0,89,0.00,,,0.00,90,Wunderground v.1.15,2013-07-01 11:37:00,
2013-07-01 07:43:00,75.4,71.9,29.92,North,360,0.0,3.0,89,0.00,,,0.00,49,Wunderground v.1.15,2013-07-01 11:43:00,
2013-07-01 07:50:00,75.6,72.1,29.92,North,360,0.0,0.0,89,0.00,,,0.00,123,Wunderground v.1.15,2013-07-01 11:50:00,
2013-07-01 07:55:00,75.8,72.3,29.92,NNE,20,0.0,0.0,89,0.00,,,0.00,91,Wunderground v.1.15,2013-07-01 11:55:00,
2013-07-01 08:01:00,75.8,72.3,29.92,North,360,0.0,0.0,89,0.00,,,0.00,60,Wunderground v.1.15,2013-07-01 12:01:00,
2013-07-01 08:07:00,76.0,72.5,29.92,North,360,0.0,0.0,89,0.00,,,0.00,169,Wunderground v.1.15,2013-07-01 12:07:00,
2013-07-01 08:13:00,76.1,72.6,29.92,North,360,0.0,0.0,89,0.00,,,0.00,188,Wunderground v.1.15,2013-07-01 12:13:00,
2013-07-01 08:21:00,76.7,72.9,29.92,North,360,0.0,1.0,88,0.00,,,0.00,125,Wunderground v.1.15,2013-07-01 12:21:00,
2013-07-01 08:27:00,76.7,72.9,29.92,NNE,24,0.0,3.0,88,0.00,,,0.00,181,Wunderground v.1.15,2013-07-01 12:27:00,
2013-07-01 08:33:00,76.8,72.6,29.92,NNE,28,1.0,3.0,87,0.00,,,0.00,128,Wunderground v.1.15,2013-07-01 12:33:00,
2013-07-01 08:40:00,77.0,72.8,29.92,NNE,22,1.0,3.0,87,0.00,,,0.00,105,Wunderground v.1.15,2013-07-01 12:40:00,
2013-07-01 08:45:00,77.0,72.5,29.92,NNE,29,1.0,3.0,86,0.00,,,0.00,206,Wunderground v.1.15,2013-07-01 12:45:00,
2013-07-01 08:51:00,77.2,72.7,29.92,NNE,20,1.0,5.0,86,0.00,,,0.00,260,Wunderground v.1.15,2013-07-01 12:51:00,
2013-07-01 08:57:00,77.2,72.7,29.92,NNE,18,1.0,1.0,86,0.00,,,0.00,162,Wunderground v.1.15,2013-07-01 12:57:00,
2013-07-01 09:03:00,77.4,72.5,29.92,NNE,18,1.0,2.0,85,0.00,,,0.00,118,Wunderground v.1.15,2013-07-01 13:03:00,
2013-07-01 09:09:00,77.4,72.5,29.92,North,360,1.0,1.0,85,0.00,,,0.00,44,Wunderground v.1.15,2013-07-01 13:09:00,
2013-07-01 09:17:00,77.4,72.5,29.92,North,360,1.0,1.0,85,0.00,,,0.00,44,Wunderground v.1.15,2013-07-01 13:17:00,
2013-07-01 09:23:00,77.2,72.3,29.92,North,360,2.0,2.0,85,0.00,,,0.00,33,Wunderground v.1.15,2013-07-01 13:23:00,
2013-07-01 09:29:00,77.2,72.3,29.91,North,360,1.0,4.0,85,0.00,,,0.00,23,Wunderground v.1.15,2013-07-01 13:29:00,
2013-07-01 09:35:00,77.2,72.3,29.91,North,360,2.0,6.0,85,0.00,,,0.00,18,Wunderground v.1.15,2013-07-01 13:35:00,
2013-07-01 09:40:00,77.0,72.5,29.91,North,360,2.0,2.0,86,0.00,,,0.00,16,Wunderground v.1.15,2013-07-01 13:40:00,
2013-07-01 09:46:00,77.0,72.8,29.89,North,360,2.0,2.0,87,0.23,,,0.02,0,Wunderground v.1.15,2013-07-01 13:46:00,
2013-07-01 09:48:00,76.8,72.6,29.89,North,0,4.0,-999.0,87,0.04,,,1.91,2,Wunderground v.1.15,2013-07-01 13:48:00,
2013-07-01 09:53:00,76.7,72.9,29.89,North,0,4.0,-999.0,88,0.33,,,1.91,1,Wunderground v.1.15,2013-07-01 13:53:00,
2013-07-01 09:58:00,75.1,71.6,29.92,North,0,4.0,-999.0,89,0.75,,,1.91,1,Wunderground v.1.15,2013-07-01 13:58:00,
2013-07-01 10:03:00,74.6,71.5,29.92,North,0,1.0,-999.0,90,1.24,,,1.91,8,Wunderground v.1.15,2013-07-01 14:03:00,
2013-07-01 10:08:00,74.4,71.6,29.92,North,0,3.0,-999.0,91,1.62,,,1.91,15,Wunderground v.1.15,2013-07-01 14:08:00,
2013-07-01 10:13:00,73.9,71.4,29.94,North,0,2.0,-999.0,92,1.71,,,1.91,31,Wunderground v.1.15,2013-07-01 14:13:00,
2013-07-01 10:18:00,73.5,71.0,29.94,North,0,1.0,-999.0,92,1.73,,,1.91,53,Wunderground v.1.15,2013-07-01 14:18:00,
2013-07-01 10:23:00,73.3,71.2,29.94,North,0,0.0,-999.0,93,1.74,,,1.91,76,Wunderground v.1.15,2013-07-01 14:23:00,
2013-07-01 10:28:00,73.2,71.1,29.94,North,0,1.0,-999.0,93,1.74,,,1.91,117,Wunderground v.1.15,2013-07-01 14:28:00,
2013-07-01 10:33:00,73.2,71.4,29.94,North,0,1.0,-999.0,94,1.74,,,1.91,172,Wunderground v.1.15,2013-07-01 14:33:00,
2013-07-01 10:38:00,73.3,71.5,29.94,North,0,0.0,-999.0,94,1.74,,,1.91,187,Wunderground v.1.15,2013-07-01 14:38:00,
2013-07-01 10:43:00,73.3,71.8,29.94,North,0,0.0,-999.0,95,1.73,,,1.91,155,Wunderground v.1.15,2013-07-01 14:43:00,
2013-07-01 10:48:00,73.3,71.8,29.94,North,0,0.0,-999.0,95,1.71,,,1.91,103,Wunderground v.1.15,2013-07-01 14:48:00,
2013-07-01 10:53:00,73.3,71.8,29.94,North,0,0.0,-999.0,95,1.43,,,1.91,87,Wunderground v.1.15,2013-07-01 14:53:00,
2013-07-01 10:58:00,73.3,71.8,29.95,N/A,-737280,0.0,-999.0,95,1.01,,,1.91,81,Wunderground v.1.15,2013-07-01 14:58:00,
2013-07-01 11:03:00,73.2,71.7,29.95,North,0,0.0,-999.0,95,0.53,,,1.91,69,Wunderground v.1.15,2013-07-01 15:03:00,
2013-07-01 11:08:00,73.2,71.7,29.95,N/A,-737280,0.0,-999.0,95,0.16,,,1.91,43,Wunderground v.1.15,2013-07-01 15:08:00,
2013-07-01 11:13:00,73.0,71.5,29.95,N/A,-737280,0.0,-999.0,95,0.07,,,1.91,33,Wunderground v.1.15,2013-07-01 15:13:00,
2013-07-01 11:18:00,73.0,71.5,29.95,N/A,-737280,0.0,-999.0,95,0.06,,,1.91,44,Wunderground v.1.15,2013-07-01 15:18:00,
2013-07-01 11:23:00,73.0,71.8,29.95,North,0,0.0,-999.0,96,0.05,,,1.91,74,Wunderground v.1.15,2013-07-01 15:23:00,
2013-07-01 11:28:00,73.0,71.8,29.95,North,0,1.0,-999.0,96,0.05,,,1.91,91,Wunderground v.1.15,2013-07-01 15:28:00,
2013-07-01 11:33:00,73.2,72.0,29.95,North,0,0.0,-999.0,96,0.06,,,1.91,127,Wunderground v.1.15,2013-07-01 15:33:00,
2013-07-01 11:38:00,73.3,72.1,29.95,North,0,1.0,-999.0,96,0.06,,,1.91,150,Wunderground v.1.15,2013-07-01 15:38:00,
2013-07-01 11:43:00,73.3,72.1,29.95,North,0,1.0,-999.0,96,0.05,,,1.91,227,Wunderground v.1.15,2013-07-01 15:43:00,
2013-07-01 11:48:00,73.7,72.5,29.95,North,0,1.0,-999.0,96,0.05,,,1.91,286,Wunderground v.1.15,2013-07-01 15:48:00,
2013-07-01 11:53:00,74.4,73.5,29.95,NNE,23,0.0,-999.0,97,0.04,,,1.91,371,Wunderground v.1.15,2013-07-01 15:53:00,
2013-07-01 11:58:00,74.6,73.7,29.95,NNE,23,1.0,-999.0,97,0.04,,,1.91,310,Wunderground v.1.15,2013-07-01 15:58:00,
2013-07-01 12:03:00,74.6,73.7,29.95,North,0,2.0,-999.0,97,0.03,,,1.91,276,Wunderground v.1.15,2013-07-01 16:03:00,
2013-07-01 12:08:00,74.4,73.5,29.95,North,0,1.0,-999.0,97,0.02,,,1.91,226,Wunderground v.1.15,2013-07-01 16:08:00,
2013-07-01 12:13:00,74.4,73.5,29.95,North,0,2.0,-999.0,97,0.02,,,1.91,195,Wunderground v.1.15,2013-07-01 16:13:00,
2013-07-01 12:18:00,74.6,73.7,29.95,North,0,0.0,-999.0,97,0.01,,,1.91,252,Wunderground v.1.15,2013-07-01 16:18:00,
2013-07-01 12:23:00,74.7,73.8,29.95,North,0,1.0,-999.0,97,0.01,,,1.91,348,Wunderground v.1.15,2013-07-01 16:23:00,
2013-07-01 12:28:00,74.9,74.0,29.95,North,0,0.0,-999.0,97,0.01,,,1.91,318,Wunderground v.1.15,2013-07-01 16:28:00,
2013-07-01 12:33:00,75.1,74.2,29.95,North,0,1.0,-999.0,97,0.00,,,1.91,386,Wunderground v.1.15,2013-07-01 16:33:00,
2013-07-01 12:38:00,75.4,74.5,29.95,North,0,1.0,-999.0,97,0.00,,,1.91,410,Wunderground v.1.15,2013-07-01 16:38:00,
2013-07-01 12:43:00,75.4,74.5,29.95,North,0,1.0,-999.0,97,0.00,,,1.91,416,Wunderground v.1.15,2013-07-01 16:43:00,
2013-07-01 12:48:00,75.3,74.4,29.95,NNE,23,2.0,-999.0,97,0.00,,,1.91,244,Wunderground v.1.15,2013-07-01 16:48:00,
2013-07-01 12:53:00,75.3,74.4,29.95,NNE,23,2.0,-999.0,97,0.00,,,1.91,166,Wunderground v.1.15,2013-07-01 16:53:00,
2013-07-01 12:58:00,75.1,74.2,29.95,NNE,23,2.0,-999.0,97,0.00,,,1.91,147,Wunderground v.1.15,2013-07-01 16:58:00,
2013-07-01 13:03:00,75.3,74.4,29.95,NNE,23,1.0,-999.0,97,0.00,,,1.91,251,Wunderground v.1.15,2013-07-01 17:03:00,
2013-07-01 13:08:00,75.4,74.5,29.95,NNE,23,1.0,-999.0,97,0.00,,,1.91,179,Wunderground v.1.15,2013-07-01 17:08:00,
2013-07-01 13:13:00,75.6,74.7,29.95,NNE,23,0.0,-999.0,97,0.00,,,1.91,242,Wunderground v.1.15,2013-07-01 17:13:00,
2013-07-01 13:18:00,75.4,74.5,29.95,NNE,23,1.0,-999.0,97,0.00,,,1.91,264,Wunderground v.1.15,2013-07-01 17:18:00,
2013-07-01 13:23:00,75.8,74.9,29.95,NNE,23,0.0,-999.0,97,0.00,,,1.91,260,Wunderground v.1.15,2013-07-01 17:23:00,
2013-07-01 13:28:00,75.8,74.6,29.95,NNE,23,1.0,-999.0,96,0.00,,,1.91,268,Wunderground v.1.15,2013-07-01 17:28:00,
2013-07-01 13:33:00,76.0,75.1,29.95,NNE,23,0.0,-999.0,97,0.00,,,1.91,273,Wunderground v.1.15,2013-07-01 17:33:00,
2013-07-01 13:38:00,76.1,74.9,29.95,NNE,23,0.0,-999.0,96,0.00,,,1.91,233,Wunderground v.1.15,2013-07-01 17:38:00,
2013-07-01 13:43:00,76.5,75.3,29.95,NNE,23,0.0,-999.0,96,0.00,,,1.91,300,Wunderground v.1.15,2013-07-01 17:43:00,
2013-07-01 13:48:00,76.5,75.0,29.95,NNE,23,1.0,-999.0,95,0.00,,,1.91,182,Wunderground v.1.15,2013-07-01 17:48:00,
2013-07-01 13:53:00,76.5,75.0,29.95,NNE,23,1.0,-999.0,95,0.00,,,1.91,182,Wunderground v.1.15,2013-07-01 17:53:00,
2013-07-01 13:58:00,76.5,75.0,29.95,NNE,23,1.0,-999.0,95,0.00,,,1.91,135,Wunderground v.1.15,2013-07-01 17:58:00,
2013-07-01 14:03:00,76.3,74.8,29.95,NNE,23,1.0,-999.0,95,0.01,,,1.91,104,Wunderground v.1.15,2013-07-01 18:03:00,
2013-07-01 14:08:00,76.3,74.8,29.95,NNE,23,0.0,-999.0,95,0.01,,,1.91,101,Wunderground v.1.15,2013-07-01 18:08:00,
2013-07-01 14:13:00,76.3,74.8,29.95,NNE,23,0.0,-999.0,95,0.02,,,1.91,105,Wunderground v.1.15,2013-07-01 18:13:00,
2013-07-01 14:18:00,76.3,74.8,29.95,North,0,0.0,-999.0,95,0.02,,,1.91,104,Wunderground v.1.15,2013-07-01 18:18:00,
2013-07-01 14:23:00,76.3,74.8,29.95,North,0,0.0,-999.0,95,0.04,,,1.91,103,Wunderground v.1.15,2013-07-01 18:23:00,
2013-07-01 14:28:00,76.3,74.8,29.95,NNE,23,1.0,-999.0,95,0.04,,,1.91,100,Wunderground v.1.15,2013-07-01 18:28:00,
2013-07-01 14:33:00,76.3,74.8,29.95,NNE,23,0.0,-999.0,95,0.05,,,1.91,82,Wunderground v.1.15,2013-07-01 18:33:00,
2013-07-01 14:38:00,76.1,74.6,29.95,NNE,23,1.0,-999.0,95,0.06,,,1.91,78,Wunderground v.1.15,2013-07-01 18:38:00,
2013-07-01 14:43:00,76.1,74.6,29.96,NNE,23,0.0,-999.0,95,0.07,,,1.91,86,Wunderground v.1.15,2013-07-01 18:43:00,
2013-07-01 14:48:00,76.0,74.5,29.96,NNE,23,1.0,-999.0,95,0.08,,,1.91,97,Wunderground v.1.15,2013-07-01 18:48:00,
2013-07-01 14:53:00,76.1,74.6,29.96,NNE,23,0.0,-999.0,95,0.09,,,1.91,107,Wunderground v.1.15,2013-07-01 18:53:00,
2013-07-01 14:58:00,76.1,74.6,29.96,NNE,23,1.0,-999.0,95,0.10,,,1.91,102,Wunderground v.1.15,2013-07-01 18:58:00,
2013-07-01 15:03:00,76.0,74.5,29.96,NNE,23,1.0,-999.0,95,0.09,,,1.91,117,Wunderground v.1.15,2013-07-01 19:03:00,
2013-07-01 15:08:00,76.0,74.5,29.96,NNE,23,0.0,-999.0,95,0.09,,,1.91,102,Wunderground v.1.15,2013-07-01 19:08:00,
2013-07-01 15:13:00,76.0,74.5,29.95,NNE,23,1.0,-999.0,95,0.08,,,1.91,133,Wunderground v.1.15,2013-07-01 19:13:00,
2013-07-01 15:18:00,76.0,74.5,29.95,NNE,23,1.0,-999.0,95,0.08,,,1.91,127,Wunderground v.1.15,2013-07-01 19:18:00,
2013-07-01 15:23:00,76.0,74.8,29.95,NNE,23,1.0,-999.0,96,0.06,,,1.91,203,Wunderground v.1.15,2013-07-01 19:23:00,
2013-07-01 15:28:00,75.8,74.6,29.95,NNE,23,2.0,-999.0,96,0.07,,,1.91,202,Wunderground v.1.15,2013-07-01 19:28:00,
2013-07-01 15:33:00,76.0,74.8,29.95,NNE,23,0.0,-999.0,96,0.06,,,1.91,214,Wunderground v.1.15,2013-07-01 19:33:00,
2013-07-01 15:38:00,76.0,74.8,29.95,NNE,23,1.0,-999.0,96,0.05,,,1.91,222,Wunderground v.1.15,2013-07-01 19:38:00,
2013-07-01 15:43:00,76.3,75.1,29.94,NNE,23,1.0,-999.0,96,0.04,,,1.91,217,Wunderground v.1.15,2013-07-01 19:43:00,
2013-07-01 15:48:00,76.1,74.9,29.94,NNE,23,2.0,-999.0,96,0.03,,,1.91,201,Wunderground v.1.15,2013-07-01 19:48:00,
2013-07-01 15:53:00,76.3,75.1,29.94,NNE,23,0.0,-999.0,96,0.02,,,1.91,186,Wunderground v.1.15,2013-07-01 19:53:00,
2013-07-01 15:58:00,76.5,75.3,29.94,N/A,-737280,0.0,-999.0,96,0.01,,,1.91,155,Wunderground v.1.15,2013-07-01 19:58:00,
2013-07-01 16:03:00,76.7,75.5,29.94,North,0,0.0,-999.0,96,0.01,,,1.91,159,Wunderground v.1.15,2013-07-01 20:03:00,
2013-07-01 16:08:00,76.8,75.6,29.94,North,0,0.0,-999.0,96,0.01,,,1.91,117,Wunderground v.1.15,2013-07-01 20:08:00,
2013-07-01 16:13:00,76.7,75.5,29.94,NNE,23,2.0,-999.0,96,0.01,,,1.91,87,Wunderground v.1.15,2013-07-01 20:13:00,
2013-07-01 16:18:00,76.5,75.3,29.94,NNE,23,2.0,-999.0,96,0.01,,,1.91,93,Wunderground v.1.15,2013-07-01 20:18:00,
2013-07-01 16:23:00,76.1,74.9,29.94,NNE,23,2.0,-999.0,96,0.01,,,1.91,104,Wunderground v.1.15,2013-07-01 20:23:00,
2013-07-01 16:28:00,76.1,74.9,29.95,NNE,23,1.0,-999.0,96,0.00,,,1.91,114,Wunderground v.1.15,2013-07-01 20:28:00,
2013-07-01 16:33:00,76.1,74.9,29.95,NNE,23,2.0,-999.0,96,0.00,,,1.91,108,Wunderground v.1.15,2013-07-01 20:33:00,
2013-07-01 16:38:00,76.1,74.9,29.95,NNE,23,1.0,-999.0,96,0.00,,,1.91,142,Wunderground v.1.15,2013-07-01 20:38:00,
2013-07-01 16:43:00,76.3,75.1,29.94,NNE,23,1.0,-999.0,96,0.00,,,1.91,120,Wunderground v.1.15,2013-07-01 20:43:00,
2013-07-01 16:48:00,76.3,75.1,29.94,NNE,23,1.0,-999.0,96,0.00,,,1.91,118,Wunderground v.1.15,2013-07-01 20:48:00,
2013-07-01 16:53:00,76.3,75.1,29.94,NNE,23,1.0,-999.0,96,0.00,,,1.91,89,Wunderground v.1.15,2013-07-01 20:53:00,
2013-07-01 16:58:00,76.3,75.1,29.94,NNE,23,1.0,-999.0,96,0.00,,,1.91,62,Wunderground v.1.15,2013-07-01 20:58:00,
2013-07-01 17:03:00,76.1,74.9,29.94,North,0,1.0,-999.0,96,0.00,,,1.91,46,Wunderground v.1.15,2013-07-01 21:03:00,
2013-07-01 17:08:00,76.1,74.9,29.94,North,0,1.0,-999.0,96,0.00,,,1.91,39,Wunderground v.1.15,2013-07-01 21:08:00,
2013-07-01 17:13:00,76.1,74.9,29.95,NNE,23,0.0,-999.0,96,0.00,,,1.91,75,Wunderground v.1.15,2013-07-01 21:13:00,
2013-07-01 17:18:00,76.1,74.9,29.95,North,0,1.0,-999.0,96,0.00,,,1.91,80,Wunderground v.1.15,2013-07-01 21:18:00,
2013-07-01 17:23:00,76.0,74.8,29.95,NNE,23,2.0,-999.0,96,0.00,,,1.91,85,Wunderground v.1.15,2013-07-01 21:23:00,
2013-07-01 17:28:00,76.0,74.8,29.94,NNE,23,0.0,-999.0,96,0.00,,,1.91,107,Wunderground v.1.15,2013-07-01 21:28:00,
2013-07-01 17:33:00,76.0,74.8,29.94,NNE,23,0.0,-999.0,96,0.00,,,1.91,113,Wunderground v.1.15,2013-07-01 21:33:00,
2013-07-01 17:38:00,76.0,74.8,29.94,North,0,0.0,-999.0,96,0.00,,,1.91,109,Wunderground v.1.15,2013-07-01 21:38:00,
2013-07-01 17:43:00,76.0,74.5,29.95,NNE,23,1.0,-999.0,95,0.00,,,1.91,109,Wunderground v.1.15,2013-07-01 21:43:00,
2013-07-01 17:48:00,75.8,74.3,29.95,NNE,23,1.0,-999.0,95,0.00,,,1.91,95,Wunderground v.1.15,2013-07-01 21:48:00,
2013-07-01 17:53:00,75.8,74.3,29.95,North,0,0.0,-999.0,95,0.00,,,1.91,75,Wunderground v.1.15,2013-07-01 21:53:00,
2013-07-01 17:58:00,75.6,74.1,29.95,NNE,23,2.0,-999.0,95,0.00,,,1.91,80,Wunderground v.1.15,2013-07-01 21:58:00,
2013-07-01 18:03:00,75.8,74.3,29.95,NNE,23,0.0,-999.0,95,0.00,,,1.91,95,Wunderground v.1.15,2013-07-01 22:03:00,
2013-07-01 18:08:00,75.8,74.3,29.95,NNE,23,1.0,-999.0,95,0.00,,,1.91,97,Wunderground v.1.15,2013-07-01 22:08:00,
2013-07-01 18:13:00,75.8,74.3,29.95,NNE,23,1.0,-999.0,95,0.00,,,1.91,156,Wunderground v.1.15,2013-07-01 22:13:00,
2013-07-01 18:18:00,76.0,74.5,29.95,North,0,1.0,-999.0,95,0.00,,,1.91,153,Wunderground v.1.15,2013-07-01 22:18:00,
2013-07-01 18:23:00,75.8,73.9,29.95,North,0,2.0,-999.0,94,0.00,,,1.91,69,Wunderground v.1.15,2013-07-01 22:23:00,
2013-07-01 18:28:00,75.8,73.9,29.96,NNE,23,1.0,-999.0,94,0.00,,,1.91,72,Wunderground v.1.15,2013-07-01 22:28:00,
2013-07-01 18:33:00,75.8,73.9,29.96,North,0,1.0,-999.0,94,0.00,,,1.91,90,Wunderground v.1.15,2013-07-01 22:33:00,
2013-07-01 18:38:00,75.8,73.9,29.96,NNE,23,1.0,-999.0,94,0.00,,,1.91,108,Wunderground v.1.15,2013-07-01 22:38:00,
2013-07-01 18:43:00,75.8,73.6,29.96,NNE,23,2.0,-999.0,93,0.00,,,1.91,128,Wunderground v.1.15,2013-07-01 22:43:00,
2013-07-01 18:48:00,75.8,73.9,29.96,NNE,23,2.0,-999.0,94,0.00,,,1.91,132,Wunderground v.1.15,2013-07-01 22:48:00,
2013-07-01 18:53:00,75.8,73.6,29.96,NNE,23,1.0,-999.0,93,0.00,,,1.91,157,Wunderground v.1.15,2013-07-01 22:53:00,
2013-07-01 18:58:00,76.1,73.9,29.97,North,0,0.0,-999.0,93,0.00,,,1.91,135,Wunderground v.1.15,2013-07-01 22:58:00,
2013-07-01 19:03:00,76.1,73.9,29.97,North,0,0.0,-999.0,93,0.00,,,1.91,97,Wunderground v.1.15,2013-07-01 23:03:00,
2013-07-01 19:08:00,76.1,73.9,29.97,North,0,1.0,-999.0,93,0.00,,,1.91,85,Wunderground v.1.15,2013-07-01 23:08:00,
2013-07-01 19:13:00,76.1,73.9,29.97,North,0,0.0,-999.0,93,0.00,,,1.91,71,Wunderground v.1.15,2013-07-01 23:13:00,
2013-07-01 19:18:00,76.0,73.5,29.97,North,0,0.0,-999.0,92,0.00,,,1.91,62,Wunderground v.1.15,2013-07-01 23:18:00,
2013-07-01 19:23:00,76.0,73.5,29.97,North,0,2.0,-999.0,92,0.00,,,1.91,47,Wunderground v.1.15,2013-07-01 23:23:00,
2013-07-01 19:28:00,76.0,73.5,29.98,North,0,0.0,-999.0,92,0.00,,,1.91,35,Wunderground v.1.15,2013-07-01 23:28:00,
2013-07-01 19:33:00,76.0,73.5,29.98,North,0,1.0,-999.0,92,0.00,,,1.91,26,Wunderground v.1.15,2013-07-01 23:33:00,
2013-07-01 19:38:00,75.8,73.3,29.98,North,0,0.0,-999.0,92,0.00,,,1.91,23,Wunderground v.1.15,2013-07-01 23:38:00,
2013-07-01 19:43:00,75.8,73.3,29.99,North,0,1.0,-999.0,92,0.00,,,1.91,11,Wunderground v.1.15,2013-07-01 23:43:00,
2013-07-01 19:48:00,75.6,73.1,29.99,North,0,1.0,-999.0,92,0.00,,,1.91,18,Wunderground v.1.15,2013-07-01 23:48:00,
2013-07-01 19:53:00,75.6,73.1,29.99,NNE,23,1.0,-999.0,92,0.00,,,1.91,21,Wunderground v.1.15,2013-07-01 23:53:00,
2013-07-01 19:58:00,75.4,72.9,29.99,North,0,1.0,-999.0,92,0.00,,,1.91,20,Wunderground v.1.15,2013-07-01 23:58:00,
2013-07-01 20:03:00,75.4,72.9,29.99,NNE,23,0.0,-999.0,92,0.00,,,1.91,19,Wunderground v.1.15,2013-07-02 00:03:00,
2013-07-01 20:08:00,75.4,72.9,29.99,North,0,0.0,-999.0,92,0.00,,,1.91,18,Wunderground v.1.15,2013-07-02 00:08:00,
2013-07-01 20:13:00,75.3,72.8,29.99,North,0,0.0,-999.0,92,0.00,,,1.91,13,Wunderground v.1.15,2013-07-02 00:13:00,
2013-07-01 20:18:00,75.3,72.8,29.99,North,0,1.0,-999.0,92,0.00,,,1.91,12,Wunderground v.1.15,2013-07-02 00:18:00,
2013-07-01 20:23:00,75.3,72.8,29.99,NNE,23,0.0,-999.0,92,0.00,,,1.91,8,Wunderground v.1.15,2013-07-02 00:23:00,
2013-07-01 20:28:00,75.3,72.8,29.99,NNE,23,0.0,-999.0,92,0.00,,,1.91,2,Wunderground v.1.15,2013-07-02 00:28:00,
2013-07-01 20:33:00,75.3,73.1,29.99,NNE,23,1.0,-999.0,93,0.00,,,1.91,2,Wunderground v.1.15,2013-07-02 00:33:00,
2013-07-01 20:38:00,75.3,73.1,29.99,NNE,23,0.0,-999.0,93,0.00,,,1.91,3,Wunderground v.1.15,2013-07-02 00:38:00,
2013-07-01 20:43:00,75.3,73.1,29.99,NNE,23,0.0,-999.0,93,0.00,,,1.91,0,Wunderground v.1.15,2013-07-02 00:43:00,
2013-07-01 20:48:00,75.3,73.1,29.99,North,0,0.0,-999.0,93,0.00,,,1.91,0,Wunderground v.1.15,2013-07-02 00:48:00,
2013-07-01 20:53:00,75.1,72.9,29.99,NNE,23,0.0,-999.0,93,0.00,,,1.91,0,Wunderground v.1.15,2013-07-02 00:53:00,
2013-07-01 20:58:00,75.1,72.9,30.00,NNE,23,0.0,-999.0,93,0.00,,,1.91,0,Wunderground v.1.15,2013-07-02 00:58:00,
2013-07-01 21:03:00,75.1,72.9,30.00,NNE,23,1.0,-999.0,93,0.00,,,1.91,0,Wunderground v.1.15,2013-07-02 01:03:00,
2013-07-01 21:08:00,75.1,72.9,30.00,NNE,23,1.0,-999.0,93,0.00,,,1.91,0,Wunderground v.1.15,2013-07-02 01:08:00,
2013-07-01 21:13:00,75.1,72.9,30.00,NNE,23,1.0,-999.0,93,0.00,,,1.91,0,Wunderground v.1.15,2013-07-02 01:13:00,
2013-07-01 21:18:00,75.1,72.9,30.00,NNE,23,0.0,-999.0,93,0.00,,,1.91,0,Wunderground v.1.15,2013-07-02 01:18:00,
2013-07-01 21:23:00,75.1,72.9,30.00,NNE,23,1.0,-999.0,93,0.00,,,1.91,0,Wunderground v.1.15,2013-07-02 01:23:00,
2013-07-01 21:28:00,75.1,72.9,30.00,NNE,23,0.0,-999.0,93,0.00,,,1.91,0,Wunderground v.1.15,2013-07-02 01:28:00,
2013-07-01 21:33:00,74.9,72.7,30.00,NNE,23,1.0,-999.0,93,0.00,,,1.91,0,Wunderground v.1.15,2013-07-02 01:33:00,
2013-07-01 21:38:00,74.9,72.7,30.00,NNE,23,0.0,-999.0,93,0.00,,,1.91,0,Wunderground v.1.15,2013-07-02 01:38:00,
2013-07-01 21:43:00,74.9,72.7,30.00,NNE,23,1.0,-999.0,93,0.00,,,1.91,0,Wunderground v.1.15,2013-07-02 01:43:00,
2013-07-01 21:48:00,74.9,72.7,30.00,NNE,23,0.0,-999.0,93,0.00,,,1.91,0,Wunderground v.1.15,2013-07-02 01:48:00,
2013-07-01 21:53:00,74.9,72.7,30.00,NNE,23,0.0,-999.0,93,0.00,,,1.91,0,Wunderground v.1.15,2013-07-02 01:53:00,
2013-07-01 21:58:00,74.9,72.7,30.00,NNE,23,1.0,-999.0,93,0.00,,,1.91,0,Wunderground v.1.15,2013-07-02 01:58:00,
2013-07-01 22:03:00,74.9,72.7,30.00,NNE,23,1.0,-999.0,93,0.00,,,1.91,0,Wunderground v.1.15,2013-07-02 02:03:00,
2013-07-01 22:08:00,74.9,72.7,30.00,North,0,0.0,-999.0,93,0.00,,,1.91,0,Wunderground v.1.15,2013-07-02 02:08:00,
2013-07-01 22:13:00,74.9,72.7,30.01,NNE,23,0.0,-999.0,93,0.00,,,1.91,0,Wunderground v.1.15,2013-07-02 02:13:00,
2013-07-01 22:18:00,74.9,72.7,30.01,NNE,23,0.0,-999.0,93,0.00,,,1.91,0,Wunderground v.1.15,2013-07-02 02:18:00,
2013-07-01 22:23:00,74.9,72.7,30.01,NNE,23,1.0,-999.0,93,0.00,,,1.91,0,Wunderground v.1.15,2013-07-02 02:23:00,
2013-07-01 22:28:00,74.9,72.7,30.01,NNE,23,0.0,-999.0,93,0.00,,,1.91,0,Wunderground v.1.15,2013-07-02 02:28:00,
2013-07-01 22:33:00,74.9,72.7,30.01,NNE,23,0.0,-999.0,93,0.00,,,1.91,0,Wunderground v.1.15,2013-07-02 02:33:00,
2013-07-01 22:38:00,74.9,72.7,30.01,NNE,23,2.0,-999.0,93,0.00,,,1.91,0,Wunderground v.1.15,2013-07-02 02:38:00,
2013-07-01 22:43:00,74.9,72.7,30.01,NNE,23,1.0,-999.0,93,0.00,,,1.91,0,Wunderground v.1.15,2013-07-02 02:43:00,
2013-07-01 22:48:00,74.9,72.7,30.01,NNE,23,1.0,-999.0,93,0.00,,,1.91,0,Wunderground v.1.15,2013-07-02 02:48:00,
2013-07-01 22:53:00,74.9,72.7,30.01,NNE,23,1.0,-999.0,93,0.00,,,1.91,0,Wunderground v.1.15,2013-07-02 02:53:00,
2013-07-01 22:58:00,74.9,72.7,30.01,NNE,23,1.0,-999.0,93,0.00,,,1.91,0,Wunderground v.1.15,2013-07-02 02:58:00,
2013-07-01 23:03:00,74.7,72.5,30.01,NNE,23,0.0,-999.0,93,0.00,,,1.91,0,Wunderground v.1.15,2013-07-02 03:03:00,
2013-07-01 23:08:00,74.7,72.5,30.01,NNE,23,2.0,-999.0,93,0.00,,,1.91,0,Wunderground v.1.15,2013-07-02 03:08:00,
2013-07-01 23:13:00,74.7,72.5,30.02,NNE,23,1.0,-999.0,93,0.00,,,1.91,0,Wunderground v.1.15,2013-07-02 03:13:00,
2013-07-01 23:18:00,74.7,72.5,30.02,NNE,23,1.0,-999.0,93,0.00,,,1.91,0,Wunderground v.1.15,2013-07-02 03:18:00,
2013-07-01 23:23:00,74.7,72.5,30.02,North,0,0.0,-999.0,93,0.00,,,1.91,0,Wunderground v.1.15,2013-07-02 03:23:00,
2013-07-01 23:28:00,74.7,72.5,30.02,NNE,23,0.0,-999.0,93,0.00,,,1.91,0,Wunderground v.1.15,2013-07-02 03:28:00,
2013-07-01 23:33:00,74.7,72.5,30.02,NNE,23,1.0,-999.0,93,0.00,,,1.91,0,Wunderground v.1.15,2013-07-02 03:33:00,
2013-07-01 23:38:00,74.7,72.5,30.02,NNE,23,0.0,-999.0,93,0.00,,,1.91,0,Wunderground v.1.15,2013-07-02 03:38:00,
2013-07-01 23:43:00,74.7,72.5,30.03,NNE,23,0.0,-999.0,93,0.00,,,1.91,0,Wunderground v.1.15,2013-07-02 03:43:00,
2013-07-01 23:48:00,74.7,72.5,30.03,North,0,1.0,-999.0,93,0.00,,,1.91,0,Wunderground v.1.15,2013-07-02 03:48:00,
2013-07-01 23:53:00,74.7,72.5,30.03,North,0,0.0,-999.0,93,0.00,,,1.91,0,Wunderground v.1.15,2013-07-02 03:53:00,
2013-07-01 23:58:00,74.7,72.5,30.03,North,0,0.0,-999.0,93,0.00,,,1.91,0,Wunderground v.1.15,2013-07-02 03:58:00,